{"data":{"norad_id":66046,"intl_designator":"2025-233P","name":"QIANFAN-104","alt_names":[],"object_type":"PAYLOAD","status":"ACTIVE","operator":null,"country":"PRC","launch_date":"2025-10-17","launch_site_code":"TAISC","launch_vehicle":null,"mission":null,"orbit_class":"UNKNOWN","rcs_meters":null,"size_class":null,"mass_kg":null,"dimensions":null,"purposes":[],"wikipedia_slug":null,"has_3d_model":false,"image_url":null,"decayed_at":null,"tle_current":{"epoch":"2026-05-25T03:40:38.267616Z","epoch_age_seconds":75987,"freshness":"FRESH","line1":"1 66046U 25233P   26145.15322069  .00000136  00000+0  19211-3 0  9999","line2":"2 66046  89.0031  45.4232 0002138  75.8853 284.2535 13.51009444 30121","mean_motion":13.51009444,"eccentricity":0.0002138,"inclination_deg":89.0031,"raan_deg":45.4232,"arg_perigee_deg":75.8853,"mean_anomaly_deg":284.2535,"bstar":0.00019211,"rev_number":3012,"period_min":106.58696772219,"perigee_km":1066.9547808507,"apogee_km":1070.1389828786,"semimajor_km":7446.6838818646,"source":"CELESTRAK","updated_at":"2026-05-25T13:38:05.922894Z"}}}